GW1286 Weather Reports


Display with metric or nautical units.
time (UTC)temp
F
wind
direction
speed
MPH
gust
MPH
rain 1hr
in
rain 24hr
in
rain mn
in
humidity
%
barometer
mb
20260510081031 48 250 1.0 5.0 0.00 0.50 0.00 92 1009.3
20260510080532 48 231 1.0 5.0 0.00 0.50 0.00 92 1009.1
20260510080043 48 0 1.0 3.0 0.00 0.50 0.00 92 1009.2
20260510075531 49 238 0.0 3.0 0.00 0.54 0.00 92 1009.1
20260510075031 49 311 0.0 3.0 0.00 0.54 0.00 92 1009.2
20260510074545 49 311 1.0 3.0 0.00 0.54 0.00 92 1009.0
20260510074034 49 0 1.0 3.0 0.00 0.54 0.00 92 1009.2
20260510073532 49 313 0.0 3.0 0.00 0.54 0.00 92 1009.1
20260510073103 49 313 0.0 3.0 0.00 0.54 0.00 92 1009.3
20260510072531 49 313 1.0 3.0 0.00 0.54 0.00 92 1009.5
20260510072031 49 293 1.0 3.0 0.00 0.54 0.00 92 1009.4
20260510071556 49 294 1.0 3.0 0.00 0.54 0.00 92 1009.5
20260510071031 49 293 1.0 5.0 0.00 0.54 0.00 92 1009.5
20260510070530 49 213 2.0 5.0 0.00 0.54 0.00 92 1009.4
20260510070045 49 209 1.0 5.0 0.00 0.54 0.00 91 1009.6
20260510065534 50 0 0.0 3.0 0.00 0.54 0.00 91 1009.7
20260510065031 50 0 0.0 3.0 0.00 0.54 0.00 91 1009.9
20260510064553 50 202 0.0 2.0 0.00 0.54 0.00 90 1010.1
20260510064031 50 202 0.0 3.0 0.00 0.54 0.00 90 1010.2
20260510063531 50 0 0.0 6.0 0.00 0.54 0.00 90 1010.2
20260510063045 51 199 0.0 6.0 0.00 0.54 0.00 90 1010.3
20260510062531 51 199 2.0 9.0 0.00 0.54 0.00 90 1010.2
20260510062031 50 347 3.0 9.0 0.00 0.54 0.00 91 1010.5
20260510061546 50 151 1.0 5.0 0.00 0.54 0.00 92 1010.8
20260510061032 50 360 2.0 6.0 0.00 0.54 0.00 92 1010.7
20260510060532 49 169 1.0 6.0 0.00 0.54 0.00 92 1010.6
20260510060045 49 146 1.0 4.0 0.00 0.54 0.00 92 1010.3
20260510055532 49 304 0.0 3.0 0.00 0.54 0.00 92 1010.3
20260510055034 49 0 1.0 3.0 0.00 0.54 0.00 92 1010.2
20260510054545 49 142 0.0 4.0 0.00 0.54 0.00 91 1010.2
20260510054035 49 142 1.0 4.0 0.00 0.54 0.00 91 1010.2
20260510053531 49 202 0.0 3.0 0.00 0.54 0.00 91 1010.1
20260510053045 49 0 1.0 4.0 0.00 0.54 0.00 90 1010.0
20260510052533 49 207 0.0 4.0 0.00 0.54 0.00 90 1009.9
20260510052031 50 196 1.0 4.0 0.00 0.54 0.00 90 1009.7
20260510051545 50 0 0.0 2.0 0.00 0.54 0.00 90 1009.7
20260510051032 50 0 0.0 2.0 0.00 0.54 0.00 90 1009.8
20260510050535 50 0 0.0 4.0 0.00 0.54 0.00 89 1009.8
20260510050051 50 0 0.0 5.0 0.00 0.54 0.00 89 1009.7
20260510045533 50 209 1.0 5.0 0.00 0.54 0.00 89 1009.7
20260510045035 51 0 0.0 2.0 0.00 0.54 0.00 89 1009.6
20260510044551 51 0 0.0 10.0 0.00 0.54 0.00 89 1009.6
20260510044032 51 0 2.0 10.0 0.00 0.54 0.00 89 1009.7
20260510043532 51 206 3.0 10.0 0.00 0.54 0.00 90 1009.6
20260510043048 51 251 1.0 5.0 0.00 0.54 0.00 89 1009.5
20260510042531 51 325 0.0 4.0 0.00 0.54 0.00 89 1009.6
20260510042031 51 213 0.0 5.0 0.00 0.54 0.00 88 1009.6
20260510041543 51 258 2.0 7.0 0.00 0.54 0.00 88 1009.5
20260510041032 51 227 2.0 9.0 0.00 0.54 0.00 88 1009.5
20260510040532 51 250 2.0 9.0 0.00 0.54 0.00 88 1009.6
20260510040049 51 0 4.0 14.0 0.00 0.54 0.00 88 1009.7
20260510035531 51 308 5.0 14.0 0.00 0.54 0.54 88 1009.6
20260510035031 51 200 5.0 10.0 0.00 0.54 0.54 89 1009.5
20260510034542 51 205 2.0 11.0 0.00 0.54 0.54 89 1009.4
20260510034033 51 258 3.0 11.0 0.00 0.54 0.54 89 1009.4
20260510033531 51 254 4.0 11.0 0.00 0.54 0.54 90 1009.4
20260510033052 50 203 6.0 11.0 0.00 0.54 0.54 90 1009.3
20260510032534 50 194 3.0 11.0 0.00 0.54 0.54 90 1009.2
20260510032034 50 242 2.0 11.0 0.00 0.54 0.54 90 1009.3
20260510031553 50 234 3.0 8.0 0.00 0.54 0.54 91 1009.4
20260510031031 50 240 1.0 6.0 0.00 0.54 0.54 91 1009.4
20260510030531 50 237 3.0 7.0 0.00 0.54 0.54 91 1009.5
20260510030044 50 283 1.0 9.0 0.00 0.54 0.54 91 1009.5
20260510025534 50 215 3.0 9.0 0.00 0.54 0.54 91 1009.3
20260510025035 50 284 3.0 9.0 0.00 0.54 0.54 91 1009.3
20260510024545 49 203 2.0 9.0 0.00 0.54 0.54 92 1009.2
20260510024033 49 252 1.0 5.0 0.00 0.54 0.54 92 1009.1
20260510023531 49 176 1.0 5.0 0.00 0.54 0.54 92 1009.1
20260510023049 49 218 2.0 4.0 0.00 0.54 0.54 92 1009.1
20260510022533 49 169 1.0 3.0 0.00 0.54 0.54 92 1009.2
20260510022032 49 263 0.0 5.0 0.00 0.54 0.54 92 1009.2
20260510021545 49 0 1.0 5.0 0.00 0.54 0.54 92 1009.3
20260510021031 49 316 1.0 3.0 0.00 0.54 0.54 91 1009.3
20260510020532 49 0 1.0 6.0 0.00 0.54 0.54 91 1009.2
20260510020050 49 298 1.0 6.0 0.00 0.54 0.54 91 1009.1
20260510015532 49 281 1.0 6.0 0.00 0.54 0.54 91 1009.0
20260510015035 49 0 1.0 4.0 0.00 0.54 0.54 91 1009.1
20260510014550 50 299 1.0 10.0 0.00 0.54 0.54 91 1009.0
20260510014034 50 200 0.0 10.0 0.00 0.54 0.54 91 1008.9
20260510013532 50 256 2.0 4.0 0.00 0.54 0.54 91 1008.9
20260510013047 50 284 1.0 5.0 0.00 0.54 0.54 91 1008.9
20260510012532 50 283 1.0 5.0 0.00 0.54 0.54 90 1009.0
20260510012031 50 342 1.0 5.0 0.00 0.54 0.54 90 1008.8
20260510011549 50 301 2.0 5.0 0.00 0.54 0.54 90 1008.8
20260510011031 50 241 1.0 4.0 0.00 0.54 0.54 90 1009.1
20260510010531 50 0 1.0 5.0 0.00 0.54 0.54 90 1009.0
20260510010048 50 236 2.0 5.0 0.00 0.54 0.54 91 1008.9
20260510005531 50 180 2.0 5.0 0.00 0.54 0.54 91 1008.9
20260510005032 50 0 0.0 5.0 0.00 0.54 0.54 91 1008.8
20260510004547 50 251 0.0 5.0 0.00 0.54 0.54 91 1008.8
20260510004033 50 221 1.0 5.0 0.00 0.54 0.54 91 1008.7
20260510003532 50 296 1.0 3.0 0.00 0.54 0.54 91 1008.7
20260510003049 50 246 0.0 3.0 0.00 0.54 0.54 90 1008.6
20260510002531 50 247 0.0 3.0 0.00 0.54 0.54 90 1008.6
20260510002031 50 238 1.0 3.0 0.00 0.54 0.54 90 1008.6
20260510001552 51 222 1.0 4.0 0.00 0.54 0.54 90 1008.6
20260510001032 51 195 1.0 4.0 0.00 0.54 0.54 89 1008.4
20260510000531 51 229 0.0 5.0 0.00 0.54 0.54 89 1008.3
20260510000044 51 188 0.0 5.0 0.00 0.54 0.54 88 1008.3
20260509235532 51 210 1.0 8.0 0.00 0.54 0.54 88 1008.3
20260509235031 51 185 1.0 9.0 0.00 0.54 0.54 88 1008.1
20260509234547 51 218 2.0 9.0 0.00 0.54 0.54 88 1008.1
20260509234031 51 161 1.0 7.0 0.00 0.54 0.54 88 1008.0
20260509233531 51 228 1.0 8.0 0.00 0.54 0.54 88 1008.0
20260509233052 51 215 2.0 8.0 0.00 0.54 0.54 88 1008.0
20260509232531 51 257 2.0 6.0 0.00 0.54 0.54 88 1008.0
20260509232032 51 213 2.0 6.0 0.00 0.54 0.54 87 1007.9
20260509231546 51 0 2.0 6.0 0.00 0.54 0.54 87 1007.7
20260509231031 51 227 1.0 8.0 0.00 0.54 0.54 87 1007.7
20260509230532 52 174 2.0 8.0 0.00 0.54 0.54 87 1007.6
20260509230041 51 231 4.0 8.0 0.00 0.54 0.54 87 1007.6
20260509225531 51 221 1.0 10.0 0.00 0.54 0.54 87 1007.7
20260509225033 51 167 2.0 10.0 0.00 0.54 0.54 87 1007.8
20260509224554 51 207 4.0 10.0 0.00 0.54 0.54 86 1007.7
20260509224031 51 248 4.0 16.0 0.00 0.54 0.54 87 1007.7
20260509223532 51 197 4.0 16.0 0.00 0.54 0.54 88 1007.7
20260509223050 51 219 3.0 9.0 0.00 0.54 0.54 89 1007.7
20260509222531 51 200 1.0 7.0 0.00 0.54 0.54 89 1007.8
20260509222035 51 250 1.0 8.0 0.00 0.54 0.54 89 1007.7
20260509221600 51 174 4.0 15.0 0.00 0.54 0.54 88 1007.7
20260509221031 51 190 5.0 15.0 0.00 0.54 0.54 88 1007.7
20260509220531 51 244 4.0 13.0 0.00 0.54 0.54 89 1007.8
20260509220045 51 162 5.0 13.0 0.00 0.54 0.54 89 1007.8
20260509215531 50 219 3.0 8.0 0.00 0.54 0.54 90 1007.9
20260509215030 50 167 2.0 8.0 0.00 0.54 0.54 91 1008.1
20260509214544 50 234 3.0 9.0 0.00 0.54 0.54 91 1008.2
20260509214035 50 237 3.0 9.0 0.00 0.54 0.54 91 1008.2
20260509213532 50 209 2.0 9.0 0.00 0.54 0.54 91 1008.1
20260509213042 50 240 2.0 8.0 0.00 0.54 0.54 90 1008.3
20260509212531 50 186 2.0 11.0 0.00 0.54 0.54 91 1008.2
20260509212033 50 215 5.0 11.0 0.00 0.54 0.54 90 1008.3
20260509211546 50 225 3.0 12.0 0.00 0.54 0.54 91 1008.3
20260509211031 50 205 5.0 12.0 0.00 0.54 0.54 91 1008.1
20260509210529 50 248 2.0 9.0 0.00 0.54 0.54 91 1008.2
20260509210054 50 252 3.0 9.0 0.00 0.54 0.54 91 1008.1
20260509205531 49 213 3.0 9.0 0.00 0.54 0.54 91 1008.3
20260509205031 49 197 3.0 9.0 0.00 0.54 0.54 91 1008.3
20260509204547 49 153 1.0 7.0 0.00 0.54 0.54 92 1008.3
20260509204031 49 217 1.0 7.0 0.00 0.54 0.54 92 1008.3
20260509203530 49 248 3.0 7.0 0.01 0.54 0.54 92 1008.6
20260509203052 49 223 3.0 7.0 0.01 0.54 0.54 92 1008.6
20260509202531 49 199 2.0 7.0 0.01 0.54 0.54 92 1008.6
20260509202033 49 286 1.0 10.0 0.01 0.54 0.54 92 1008.7
20260509201553 49 193 4.0 11.0 0.01 0.54 0.54 92 1008.7
20260509201031 49 211 3.0 11.0 0.01 0.54 0.54 92 1008.8
20260509200531 49 195 1.0 7.0 0.01 0.54 0.54 92 1008.8
20260509200056 49 161 2.0 7.0 0.02 0.54 0.54 92 1008.7
20260509195530 49 327 0.0 9.0 0.02 0.54 0.54 92 1008.8
20260509195032 49 198 3.0 9.0 0.03 0.54 0.54 92 1008.8
20260509194543 49 187 2.0 7.0 0.03 0.54 0.54 92 1008.9
20260509194031 49 220 2.0 10.0 0.02 0.52 0.52 92 1009.0
20260509193532 49 207 2.0 10.0 0.02 0.52 0.52 92 1009.0
20260509193049 49 260 3.0 10.0 0.03 0.52 0.52 93 1008.9
20260509192531 49 197 3.0 10.0 0.03 0.52 0.52 93 1009.0
20260509192032 49 162 1.0 7.0 0.03 0.52 0.52 93 1009.1
20260509191546 49 155 3.0 7.0 0.03 0.52 0.52 93 1009.1
20260509191035 49 188 3.0 8.0 0.03 0.52 0.52 93 1009.0
20260509190531 49 198 2.0 8.0 0.03 0.52 0.52 93 1009.1
20260509190051 49 194 3.0 7.0 0.02 0.52 0.52 93 1009.2
20260509185531 49 180 3.0 10.0 0.02 0.52 0.52 92 1009.2
20260509185032 49 246 4.0 10.0 0.01 0.51 0.51 92 1009.3
20260509184543 49 209 1.0 11.0 0.02 0.51 0.51 93 1009.2
20260509184030 49 216 3.0 11.0 0.02 0.51 0.51 92 1009.2
20260509183532 49 200 2.0 7.0 0.02 0.51 0.51 93 1009.3
20260509183045 49 216 3.0 9.0 0.02 0.50 0.50 93 1009.2
20260509182531 49 234 2.0 9.0 0.02 0.50 0.50 93 1009.3
20260509182031 49 237 4.0 9.0 0.02 0.50 0.50 93 1009.2
20260509181555 49 241 1.0 8.0 0.03 0.50 0.50 93 1009.2
20260509181033 49 212 3.0 12.0 0.03 0.50 0.50 93 1009.3
20260509180531 49 242 4.0 12.0 0.04 0.50 0.50 93 1009.2
20260509180055 49 140 3.0 11.0 0.05 0.50 0.50 94 1009.1
20260509175531 49 237 0.0 5.0 0.05 0.52 0.50 94 1009.1
20260509175032 49 205 1.0 12.0 0.06 0.52 0.50 94 1009.0
20260509174544 49 142 4.0 12.0 0.05 0.52 0.49 94 1009.0
20260509174031 49 217 2.0 6.0 0.05 0.52 0.49 94 1009.1
20260509173532 49 240 1.0 4.0 0.05 0.52 0.49 94 1009.1
20260509173048 49 240 2.0 4.0 0.04 0.51 0.48 94 1009.1
20260509172532 49 268 0.0 3.0 0.05 0.51 0.48 94 1009.1
20260509172031 49 230 1.0 4.0 0.05 0.51 0.48 94 1009.2
20260509171548 49 241 1.0 5.0 0.04 0.50 0.47 94 1009.2
20260509171031 48 212 1.0 5.0 0.04 0.49 0.46 94 1009.2
20260509170533 48 204 2.0 6.0 0.04 0.49 0.46 94 1009.3
20260509170044 48 233 1.0 11.0 0.03 0.48 0.45 94 1009.4
20260509165532 48 234 4.0 11.0 0.04 0.50 0.45 94 1009.4
20260509165031 48 215 2.0 7.0 0.04 0.49 0.44 95 1009.5
20260509164554 48 248 2.0 6.0 0.04 0.49 0.44 95 1009.5
20260509164030 48 251 0.0 6.0 0.05 0.49 0.44 95 1009.6
20260509163534 48 210 2.0 6.0 0.05 0.49 0.44 95 1009.7
20260509163045 48 229 2.0 6.0 0.06 0.49 0.44 95 1009.8
20260509162532 48 211 1.0 5.0 0.05 0.48 0.43 95 1009.8
20260509162031 48 246 0.0 5.0 0.06 0.48 0.43 95 1009.8
20260509161555 48 254 1.0 4.0 0.06 0.48 0.43 95 1009.9
20260509161030 48 201 1.0 6.0 0.06 0.47 0.42 95 1010.0
20260509160531 47 0 1.0 6.0 0.06 0.47 0.42 95 1010.0
20260509160044 47 199 2.0 6.0 0.05 0.46 0.41 95 1010.1
20260509155530 47 0 0.0 3.0 0.06 0.47 0.41 95 1010.2
20260509155031 47 284 0.0 3.0 0.05 0.46 0.40 95 1010.3
20260509154548 47 242 1.0 5.0 0.06 0.46 0.40 95 1010.3
20260509154029 47 198 0.0 6.0 0.05 0.45 0.39 95 1010.4
20260509153532 47 206 2.0 6.0 0.06 0.45 0.39 95 1010.4
20260509153047 46 200 2.0 5.0 0.05 0.44 0.38 95 1010.5
20260509152531 46 220 0.0 3.0 0.06 0.44 0.38 95 1010.6
20260509152031 46 0 0.0 2.0 0.05 0.43 0.37 95 1010.7
20260509151547 46 0 0.0 3.0 0.06 0.43 0.37 95 1010.6
20260509151031 45 0 0.0 3.0 0.05 0.42 0.36 95 1010.7
20260509150531 45 0 0.0 3.0 0.06 0.42 0.36 95 1010.8
20260509150049 45 255 0.0 3.0 0.07 0.42 0.36 95 1010.8
20260509145531 44 255 0.0 3.0 0.06 0.41 0.35 95 1010.7
20260509145032 44 255 1.0 2.0 0.07 0.41 0.35 95 1010.8
20260509144545 43 0 0.0 2.0 0.07 0.40 0.34 95 1010.8
20260509144031 43 0 0.0 2.0 0.07 0.40 0.34 95 1010.8
20260509143531 43 0 0.0 2.0 0.07 0.39 0.33 95 1010.8
20260509143044 43 0 0.0 2.0 0.07 0.39 0.33 95 1010.8
20260509142531 43 59 1.0 3.0 0.07 0.38 0.32 95 1010.8
20260509142033 42 344 0.0 3.0 0.07 0.38 0.32 95 1010.9
20260509141544 42 55 1.0 2.0 0.06 0.37 0.31 95 1010.8
20260509141034 42 0 0.0 2.0 0.05 0.36 0.30 95 1010.8
20260509140531 42 0 0.0 0.0 0.06 0.36 0.30 95 1010.8
20260509140051 42 0 0.0 1.0 0.05 0.35 0.29 95 1010.9
20260509135531 42 0 0.0 1.0 0.06 0.35 0.29 95 1010.7
20260509135034 41 0 0.0 1.0 0.05 0.34 0.28 95 1010.8
20260509134613 41 0 0.0 1.0 0.04 0.33 0.27 95 1010.8
20260509134030 41 0 0.0 2.0 0.05 0.33 0.27 95 1010.8
20260509133531 41 0 1.0 2.0 0.04 0.32 0.26 95 1010.8
20260509133043 41 53 0.0 2.0 0.04 0.32 0.26 95 1010.8
20260509132531 40 0 0.0 0.0 0.04 0.31 0.25 95 1010.8
20260509132031 40 0 0.0 0.0 0.04 0.31 0.25 95 1010.8
20260509131549 40 0 0.0 0.0 0.04 0.31 0.25 95 1010.8
20260509131032 40 0 0.0 0.0 0.04 0.31 0.25 95 1010.9
20260509130531 40 0 0.0 1.0 0.03 0.30 0.24 95 1010.8
20260509130044 40 0 0.0 1.0 0.03 0.30 0.24 95 1010.9
20260509125532 40 0 0.0 1.0 0.02 0.29 0.23 95 1010.9
20260509125031 40 0 0.0 1.0 0.02 0.29 0.23 95 1010.9
20260509124546 40 0 0.0 1.0 0.03 0.29 0.23 95 1010.9
20260509124031 39 0 0.0 1.0 0.03 0.28 0.22 95 1010.9
20260509123530 39 0 0.0 1.0 0.03 0.28 0.22 95 1010.9
20260509123047 39 0 0.0 0.0 0.03 0.28 0.22 95 1010.9
20260509122530 39 0 0.0 1.0 0.02 0.27 0.21 95 1011.0
20260509122031 39 0 0.0 1.0 0.02 0.27 0.21 95 1011.1
20260509121549 39 0 0.0 1.0 0.03 0.27 0.21 95 1011.0
20260509121031 38 53 0.0 1.0 0.04 0.27 0.21 95 1011.0
20260509120531 38 0 0.0 2.0 0.04 0.27 0.21 95 1011.0
20260509120044 38 0 0.0 2.0 0.05 0.27 0.21 95 1011.2
20260509115530 38 0 0.0 1.0 0.05 0.27 0.21 95 1011.2
20260509115031 38 0 0.0 1.0 0.05 0.26 0.20 95 1011.3
20260509114545 37 0 0.0 1.0 0.06 0.26 0.20 95 1011.2
20260509114030 37 0 0.0 2.0 0.06 0.25 0.19 95 1011.4
20260509113531 37 0 0.0 2.0 0.06 0.25 0.19 95 1011.4
20260509113053 37 0 0.0 2.0 0.07 0.25 0.19 95 1011.2
20260509112531 37 46 0.0 2.0 0.07 0.25 0.19 94 1011.2
20260509112031 37 0 0.0 1.0 0.07 0.24 0.18 94 1011.1
20260509111546 37 0 0.0 2.0 0.07 0.24 0.18 95 1011.2
20260509111032 36 0 0.0 2.0 0.07 0.23 0.17 95 1011.1
20260509110531 36 46 0.0 2.0 0.07 0.23 0.17 95 1011.1
20260509110047 36 46 0.0 1.0 0.06 0.22 0.16 94 1011.2
20260509105531 36 0 0.0 0.0 0.06 0.22 0.16 94 1011.2
20260509105032 36 0 0.0 1.0 0.05 0.21 0.15 94 1011.2
20260509104544 36 0 0.0 1.0 0.05 0.20 0.14 94 1011.1
20260509104030 36 0 0.0 1.0 0.04 0.19 0.13 94 1011.2
20260509103530 36 46 0.0 1.0 0.04 0.19 0.13 94 1011.3
20260509103042 36 0 0.0 1.0 0.03 0.18 0.12 94 1011.3
20260509102532 36 0 0.0 1.0 0.03 0.18 0.12 94 1011.1
20260509102032 36 0 0.0 1.0 0.02 0.17 0.11 94 1011.2
20260509101549 36 0 0.0 1.0 0.02 0.16 0.10 94 1011.2
20260509101030 36 0 0.0 1.0 0.02 0.16 0.10 94 1011.2
20260509100530 36 0 0.0 1.0 0.02 0.16 0.10 94 1011.2
20260509100048 36 0 0.0 1.0 0.02 0.16 0.10 94 1011.1
20260509095530 35 0 0.0 1.0 0.02 0.16 0.10 94 1011.2
20260509095031 35 0 0.0 1.0 0.02 0.16 0.10 94 1011.1
20260509094545 35 0 0.0 1.0 0.01 0.15 0.09 94 1011.2
20260509094032 35 0 0.0 1.0 0.02 0.15 0.09 94 1011.2
20260509093532 35 0 0.0 1.0 0.02 0.15 0.09 94 1011.3
20260509093056 35 0 0.0 2.0 0.02 0.15 0.09 94 1011.3
20260509092530 35 0 0.0 2.0 0.02 0.15 0.09 94 1011.5
20260509092033 35 0 0.0 2.0 0.03 0.15 0.09 94 1011.4
20260509091550 35 0 0.0 2.0 0.02 0.14 0.08 94 1011.4
20260509091031 35 0 0.0 2.0 0.03 0.14 0.08 94 1011.6
20260509090532 35 0 0.0 2.0 0.04 0.14 0.08 94 1011.6
20260509090047 35 0 0.0 2.0 0.04 0.14 0.08 94 1011.5
20260509085530 35 0 1.0 2.0 0.04 0.14 0.08 94 1011.5
20260509085030 35 46 0.0 2.0 0.05 0.14 0.08 94 1011.5
20260509084550 35 46 0.0 2.0 0.06 0.14 0.08 94 1011.4
20260509084030 35 46 0.0 2.0 0.06 0.13 0.07 94 1011.5
20260509083532 35 0 0.0 2.0 0.06 0.13 0.07 94 1011.5
20260509083047 35 46 0.0 3.0 0.07 0.13 0.07 94 1011.6
20260509082534 35 52 0.0 3.0 0.07 0.13 0.07 94 1011.9
20260509082032 35 32 0.0 2.0 0.06 0.12 0.06 94 1011.8
20260509081552 35 0 0.0 2.0 0.05 0.11 0.05 93 1011.9